Home   Weather   Stroudsburg   Past weeks

Flag for USA Past Weather in Stroudsburg, Pennsylvania, USA — Yesterday and Last 2 Weeks

32 °F


Feels Like: 25 °F
Forecast: 29 / 48 °F
Wind: 8 mph from Northwest

Location: Pocono Mountains Municipal Airport

Current Time: Oct 26, 2016 at 9:25:11 AM

Latest Report: Oct 26, 2016 at 8:53 AM

Visibility: 10 mi

Pressure: 30.43 "Hg

Humidity: 69%

Dew Point: 23 °F

Location of StroudsburgLocation

Past Weather in Stroudsburg — Graph


Stroudsburg Temperature Yesterday

Maximum temperature yesterday: 41 °F (at 1:53 PM)
Minimum temperature yesterday: 32 °F (at 11:53 PM)
Average temperature yesterday: 38 °F

High & Low Weather Summary for the Past Weeks

High76 °F (Oct 18, 2:53 PM)100% (Oct 20, 7:53 PM)30.48 "Hg (Oct 20, 7:53 PM)
Low26 °F (Oct 26, 3:53 AM)39% (Oct 11, 12:53 PM)29.45 "Hg (Oct 22, 2:53 AM)
Average51 °F75%30.03 "Hg
* Reported Oct 11 7:53 AM — Oct 26 7:53 AM, Stroudsburg, Weather by CustomWeather, © 2016

Note: Actual official high and low records may vary slightly from our data, if they occured in-between our weather recording intervals... More about our weather records


Stroudsburg Weather History for the Previous 24 Hours

Scroll right to see more
Time TempWeatherWind HumidityBarometerVisibility
7:53 AM
Wed, Oct 26
26 °FSunny.5 mph84%30.42 "Hg10 mi
6:53 AM26 °FClear.6 mph84%30.41 "Hg10 mi
5:53 AM26 °FClear.6 mph84%30.40 "Hg10 mi
4:53 AM28 °FClear.3 mph78%30.38 "Hg10 mi
3:53 AM26 °FClear.No wind84%30.37 "Hg10 mi
2:53 AM28 °FClear.3 mph85%30.38 "Hg10 mi
1:53 AM30 °FClear.7 mph79%30.37 "Hg10 mi
12:53 AM31 °FPassing clouds.8 mph79%30.37 "Hg10 mi
11:53 PM
Tue, Oct 25
32 °FPassing clouds.8 mph75%30.37 "Hg10 mi
10:53 PM33 °FPassing clouds.6 mph72%30.36 "Hg10 mi
9:53 PM35 °FPassing clouds.6 mph67%30.34 "Hg10 mi
8:53 PM35 °FPassing clouds.9 mph67%30.33 "Hg10 mi
7:53 PM36 °FPassing clouds.6 mph67%30.32 "Hg10 mi
6:53 PM38 °FPassing clouds.9 mph63%30.29 "Hg10 mi
5:53 PM39 °FCloudy.13 mph62%30.27 "Hg10 mi
4:53 PM40 °FPassing clouds.18 mph58%30.25 "Hg10 mi
3:53 PM41 °FPartly sunny.15 mph53%30.24 "Hg10 mi
2:53 PM40 °FPartly sunny.18 mph58%30.23 "Hg10 mi
1:53 PM41 °FMostly cloudy.10 mph62%30.22 "Hg10 mi
12:53 PM39 °FMostly cloudy.14 mph67%30.24 "Hg10 mi
11:53 AM38 °FCloudy.15 mph73%30.24 "Hg10 mi
10:53 AM37 °FMore clouds than sun.13 mph79%30.23 "Hg10 mi
9:53 AM40 °FMostly cloudy.14 mph63%30.21 "Hg10 mi
Weather by CustomWeather, © 2016

See weather overviewHow to use our weather pages